• Join FlightAware (Why Join?)
  • Login
  • US Flag GB Flag 
10:42 EST


 

Airport Tracker/Info


-or-


 

Live Flight TrackerFlight Track Log ✈ N143DE ✈ 10-May-2013 ✈ KTRI - KRYY

Flight Track Log - Related Links

Times and Time Zones

All times are in EDT time to prevent confusion due to time zone crossing. See the N143DE flight status page for this flight to view local times or setup timezone preferences in your user account.

Time Position Orientation Groundspeed Altitude Reporting Facility
EDT Latitude Longitude Course Direction KTS MPH feet Rate Location/Type
00:16 35.6733 -83.1542 217° Southwest 245 282 16,000  Level Atlanta Center
00:17 35.6172 -83.2008 214° Southwest 240 276 16,000 -50 Level Atlanta Center
00:18 35.5697 -83.2472 218° Southwest 240 276 15,900 -50 Descending Atlanta Center
00:19 35.5178 -83.2936 216° Southwest 240 276 15,900  Level Atlanta Center
00:20 35.4639 -83.3425 216° Southwest 246 283 15,900  Level Atlanta Center
00:21 35.3651 -83.4156 217° Southwest  Level Estimated
00:21 35.4097 -83.3889 215° Southwest 246 283 15,900  Level Atlanta Center
00:22 35.3581 -83.4353 216° Southwest 241 277 15,900  Level Atlanta Center
00:23 35.3061 -83.4839 217° Southwest 241 277 15,900  Level Atlanta Center
00:24 35.2519 -83.5275 213° Southwest 241 277 15,900  Level Atlanta Center
00:25 35.2000 -83.5736 216° Southwest 241 277 15,900  Level Atlanta Center
00:26 35.1458 -83.6222 216° Southwest 241 277 15,900  Level Atlanta Center
00:27 35.0958 -83.6656 215° Southwest 241 277 15,900  Level Atlanta Center
00:28 35.0419 -83.7139 216° Southwest 241 277 15,900  Level Atlanta Center
00:29 34.9878 -83.7600 215° Southwest 241 277 15,900  Level Atlanta Center
00:30 34.9356 -83.8056 216° Southwest 241 277 15,900 50 Level Atlanta Center
00:31 34.8753 -83.8539 213° Southwest 241 277 16,000  Climbing Atlanta Center
00:32 34.8294 -83.8997 219° Southwest 241 277 15,900 -50 Descending Atlanta Center
00:33 34.7794 -83.9453 217° Southwest 241 277 15,900  Level Atlanta Center
00:34 34.7272 -83.9908 216° Southwest 241 277 15,900 -250 Level Atlanta Center
00:35 34.6728 -84.0336 213° Southwest 241 277 15,400 -700 Descending Atlanta Center
00:36 34.6186 -84.0817 216° Southwest 241 277 14,500 -1,000 Descending Atlanta Center
00:37 34.5664 -84.1269 216° Southwest 241 277 13,400 -1,000 Descending Atlanta Center
00:38 34.5142 -84.1672 212° Southwest 236 272 12,500 -800 Descending Atlanta Center
00:39 34.4725 -84.2075 219° Southwest 226 260 11,800 -750 Descending Atlanta Center
00:40 34.4222 -84.2478 213° Southwest 220 253 11,000 -850 Descending Atlanta Center
00:41 34.3764 -84.2906 218° Southwest 220 253 10,100 -950 Descending Atlanta Center
00:42 34.3261 -84.3306 213° Southwest 220 253 9,100 -1,000 Descending Atlanta Center
00:43 34.2758 -84.3731 215° Southwest 220 253 8,100 -900 Descending Atlanta Center
00:44 34.2300 -84.4156 217° Southwest 215 247 7,300 -1,300 Descending Atlanta Center
00:45 34.1881 -84.4556 218° Southwest 207 238 5,500 -1,400 Descending Atlanta Center
00:46 34.1358 -84.4956 212° Southwest 202 232 4,500 -1,050 Descending Atlanta Center
00:47 34.0897 -84.5253 208° Southwest 197 227 3,400 -1,100 Descending Atlanta Center